Location: Gars am Kamp
(48.5989°N, 15.6622°E)
Time: 20:13:50
(UTC+01:00)

ISS - Visible Passes

Search period start: 21 February 2019 00:00
Search period end: 03 March 2019 00:00
Orbit: 403 x 411 km, 51.6° (Epoch: 22 February)

Date Brightness Start Highest point End Pass type
(mag) Time Alt. Az. Time Alt. Az. Time Alt. Az.
24 Feb -1.2 05:43:29 10° S 05:45:52 19° SE 05:48:15 10° E visible
25 Feb -0.8 04:53:28 10° SSE 04:54:38 11° SE 04:55:48 10° ESE visible
26 Feb -2.5 05:36:09 10° SW 05:39:11 37° SSE 05:42:15 10° ENE visible
27 Feb -1.9 04:46:53 20° SSE 04:47:51 23° SE 04:50:31 10° E visible
28 Feb -0.8 03:57:39 13° ESE 03:57:39 13° ESE 03:58:25 10° ESE visible
28 Feb -3.7 05:30:22 19° SW 05:32:36 70° SSE 05:35:52 10° ENE visible
01 Mar -3.1 04:41:01 45° SSE 04:41:08 45° SSE 04:44:17 10° ENE visible
02 Mar -0.9 03:51:35 17° E 03:51:35 17° E 03:52:36 10° E visible
02 Mar -3.8 05:24:17 24° W 05:26:04 72° NNW 05:29:20 10° ENE visible
